Home > Weather > Hangzhou > Past weeks

Flag for China Past Weather in Hangzhou, Zhejiang, China — Yesterday and Last 2 Weeks

Now
68 °F

Fog.


Feels Like: 68 °F
Forecast: 67 / 80 °F
Wind: 1 mph from West

Location: Hangzhou Airport

Current Time: May 30, 2016 at 1:28:05 AM

Latest Report: May 30, 2016 at 1:00 AM


Visibility: 3 mi

Pressure: 29.80 "Hg

Humidity: 94%

Dew Point: 66 °F

Location of HangzhouLocation

Past Weather in Hangzhou — Graph

°F

Hangzhou Temperature Yesterday

Maximum temperature yesterday: 73 °F (at 3:30 PM)
Minimum temperature yesterday: 68 °F (at 10:30 AM)
Average temperature yesterday: 71 °F

High & Low Weather Summary for the Past Weeks

 TemperatureHumidityPressure
High86 °F (May 25, 12:00 PM)100% (May 20, 9:30 PM)30.07 "Hg (May 20, 9:30 PM)
Low54 °F (May 17, 4:00 AM)25% (May 16, 4:00 PM)29.65 "Hg (May 29, 2:30 AM)
Average71 °F79%29.86 "Hg
* Reported May 15 12:00 AM — May 30 12:00 AM, Hangzhou, Weather by CustomWeather, © 2016

Note: Actual official high and low records may vary slightly from our data, if they occured in-between our weather recording intervals... More about our weather records

Advertising

Hangzhou Weather History for the Previous 24 Hours

Scroll right to see more
 ConditionsComfort  
Time TempWeatherWind HumidityBarometerVisibility
12:00 AM
Mon, May 30
70 °FFog.3 mph88%29.80 "Hg3 mi
11:30 PM
Sun, May 29
70 °FFog.1 mph88%29.80 "Hg3 mi
11:00 PM70 °FFog.No wind88%29.80 "Hg3 mi
10:30 PM70 °FFog.1 mph88%29.80 "Hg3 mi
10:00 PM70 °FFog.1 mph94%29.80 "Hg3 mi
9:30 PM70 °FPassing clouds.1 mph88%29.80 "Hg4 mi
9:00 PM70 °FPassing clouds.No wind88%29.80 "Hg4 mi
8:30 PM70 °FPassing clouds.1 mph83%29.77 "Hg4 mi
8:00 PM72 °FPassing clouds.1 mph78%29.77 "Hg4 mi
7:30 PM72 °FFog.1 mph78%29.77 "Hg3 mi
7:00 PM72 °FFog.1 mph78%29.77 "Hg3 mi
6:30 PM72 °FFog.No wind83%29.77 "Hg3 mi
6:00 PM72 °FFog.3 mph83%29.77 "Hg3 mi
5:30 PM72 °FFog.8 mph83%29.77 "Hg3 mi
5:00 PM72 °FFog.6 mph83%29.74 "Hg3 mi
4:30 PM72 °FFog.8 mph78%29.74 "Hg3 mi
4:00 PM72 °FFog.8 mph78%29.74 "Hg3 mi
3:30 PM73 °FFog.8 mph74%29.74 "Hg3 mi
3:00 PM72 °FFog.6 mph78%29.74 "Hg3 mi
2:30 PM72 °FFog.8 mph83%29.74 "Hg3 mi
2:00 PM72 °FFog.8 mph83%29.74 "Hg3 mi
1:30 PM72 °FFog.8 mph83%29.74 "Hg3 mi
1:00 PM72 °FBroken clouds.10 mph83%29.74 "Hg4 mi
12:30 PM72 °FBroken clouds.10 mph78%29.74 "Hg5 mi
12:00 PM72 °FBroken clouds.6 mph83%29.74 "Hg5 mi
11:30 AM70 °FBroken clouds.6 mph88%29.77 "Hg5 mi
11:00 AM70 °FLight rain. Broken clouds.8 mph94%29.77 "Hg5 mi
10:30 AM68 °FLight rain. Broken clouds.6 mph94%29.77 "Hg4 mi
10:00 AM70 °FLight rain. Broken clouds.10 mph88%29.74 "HgN/A
9:30 AM70 °FLight rain. Broken clouds.8 mph94%29.74 "HgN/A
9:00 AM70 °FSprinkles. Broken clouds.8 mph94%29.74 "Hg5 mi
8:30 AM70 °FSprinkles. Fog.8 mph94%29.74 "Hg3 mi
8:00 AM70 °FRain showers. Fog.6 mph94%29.71 "Hg2 mi
7:30 AM70 °FSprinkles. Fog.6 mph94%29.71 "Hg2 mi
7:00 AM70 °FSprinkles. Fog.6 mph94%29.71 "Hg2 mi
6:30 AM70 °FSprinkles. Fog.6 mph94%29.71 "Hg2 mi
6:00 AM70 °FRain showers. Fog.3 mph100%29.68 "Hg1 mi
5:30 AM70 °FRain showers. Fog.6 mph100%29.68 "Hg1 mi
5:00 AM72 °FSprinkles. Fog.3 mph94%29.68 "Hg1 mi
4:30 AM72 °FSprinkles. Fog.6 mph94%29.68 "Hg1 mi
4:00 AM72 °FSprinkles. Fog.3 mph94%29.68 "Hg1 mi
3:30 AM72 °FSprinkles. Fog.3 mph94%29.65 "Hg1 mi
3:00 AM72 °FSprinkles. Fog.3 mph94%29.65 "Hg1 mi
2:30 AM72 °FFog.3 mph94%29.65 "Hg1 mi
2:00 AM72 °FDrizzle. Fog.3 mph94%29.68 "Hg1 mi
1:30 AM72 °FFog.1 mph100%29.68 "Hg1 mi
1:00 AM72 °FFog.1 mph94%29.68 "Hg1 mi
Weather by CustomWeather, © 2016

See weather overviewHow to use our weather pages